GW7379 Weather Reports


Display with metric or nautical units.
time (UTC)temp
F
wind
direction
speed
MPH
gust
MPH
rain 1hr
in
rain 24hr
in
rain mn
in
humidity
%
barometer
mb
20260507193100 74 101 2.0 6.0 0.00 0.00 0.00 86 1015.5
20260507191554 74 141 2.0 6.0 0.00 0.00 0.00 87 1015.7
20260507190056 75 269 2.0 7.0 0.00 0.00 0.00 86 1015.8
20260507184609 76 103 1.0 7.0 0.00 0.00 0.00 83 1015.8
20260507183056 76 297 1.0 10.0 0.00 0.00 0.00 81 1015.9
20260507181553 78 160 1.0 7.0 0.00 0.00 0.00 79 1015.8
20260507180055 78 99 2.0 5.0 0.00 0.00 0.00 79 1016.0
20260507174605 78 46 2.0 7.0 0.00 0.00 0.00 77 1016.3
20260507173102 78 139 3.0 7.0 0.00 0.00 0.00 77 1016.4
20260507171611 78 22 2.0 8.0 0.00 0.00 0.00 77 1016.7
20260507170059 79 150 3.0 8.0 0.00 0.00 0.00 75 1016.9
20260507164610 78 193 4.0 8.0 0.00 0.00 0.00 74 1017.3
20260507163055 78 111 3.0 11.0 0.00 0.00 0.00 76 1017.5
20260507161603 79 122 4.0 10.0 0.00 0.00 0.00 73 1017.6
20260507160059 78 107 2.0 10.0 0.00 0.00 0.00 76 1017.8
20260507154556 77 57 2.0 7.0 0.00 0.00 0.00 76 1018.0
20260507153058 78 128 2.0 9.0 0.00 0.00 0.00 74 1018.0
20260507151547 79 44 1.0 9.0 0.00 0.00 0.00 73 1018.1
20260507150048 79 352 3.0 9.0 0.00 0.00 0.00 72 1018.0
20260507144549 79 134 2.0 9.0 0.00 0.00 0.00 75 1018.2
20260507143052 78 352 3.0 10.0 0.00 0.00 0.00 74 1018.2
20260507141558 78 140 4.0 9.0 0.00 0.00 0.00 75 1018.3
20260507140051 76 16 1.0 8.0 0.00 0.00 0.00 80 1018.4
20260507134554 75 360 2.0 8.0 0.00 0.00 0.00 80 1018.2
20260507133053 76 162 2.0 7.0 0.00 0.00 0.00 80 1018.1
20260507131553 75 136 3.0 9.0 0.00 0.00 0.00 81 1018.0
20260507130056 74 68 2.0 7.0 0.00 0.00 0.00 84 1018.0
20260507124555 74 38 3.0 9.0 0.00 0.00 0.00 84 1018.0
20260507123051 73 111 2.0 8.0 0.00 0.00 0.00 86 1017.8
20260507121553 73 91 2.0 10.0 0.00 0.00 0.00 87 1017.7
20260507120057 73 58 1.0 6.0 0.00 0.00 0.00 86 1017.3
20260507114553 72 82 2.0 8.0 0.00 0.00 0.00 88 1017.2
20260507113053 71 67 2.0 7.0 0.00 0.00 0.00 87 1017.2
20260507111558 71 44 1.0 5.0 0.00 0.00 0.00 89 1017.1
20260507110106 70 63 2.0 7.0 0.00 0.00 0.00 89 1017.0
20260507104554 70 60 3.0 8.0 0.00 0.00 0.00 91 1016.9
20260507103057 69 61 2.0 8.0 0.00 0.00 0.00 92 1016.6
20260507101550 68 106 2.0 7.0 0.00 0.00 0.00 92 1016.6
20260507100052 68 139 2.0 7.0 0.00 0.00 0.00 93 1016.4
20260507094607 68 0 0.0 2.0 0.00 0.00 0.00 93 1016.5
20260507093100 68 66 1.0 6.0 0.00 0.00 0.00 93 1016.5
20260507091631 68 29 2.0 6.0 0.00 0.00 0.00 93 1016.5
20260507084555 68 44 2.0 5.0 0.00 0.00 0.00 92 1016.5
20260507083053 69 0 2.0 5.0 0.00 0.00 0.00 92 1016.4
20260507081552 69 82 2.0 6.0 0.00 0.00 0.00 92 1016.2
20260507080055 69 86 2.0 5.0 0.00 0.00 0.00 92 1016.3
20260507074553 69 78 1.0 4.0 0.00 0.00 0.00 92 1016.3
20260507073054 69 0 0.0 4.0 0.00 0.00 0.00 92 1016.4
20260507071557 69 74 1.0 4.0 0.00 0.00 0.00 91 1016.5
20260507070104 69 40 2.0 8.0 0.00 0.00 0.00 91 1016.7
20260507064556 69 55 3.0 8.0 0.00 0.00 0.00 90 1016.7
20260507063057 69 57 1.0 5.0 0.00 0.00 0.00 90 1017.1
20260507061555 70 61 2.0 7.0 0.00 0.00 0.00 90 1017.2
20260507060104 70 67 3.0 7.0 0.00 0.00 0.00 90 1017.4
20260507054556 70 66 0.0 8.0 0.00 0.00 0.00 89 1017.4
20260507053054 70 45 2.0 7.0 0.00 0.00 0.00 89 1017.6
20260507051553 69 52 3.0 8.0 0.00 0.00 0.00 91 1017.9
20260507050100 69 57 3.0 7.0 0.00 0.00 0.00 91 1018.3
20260507044600 69 90 0.0 4.0 0.00 0.00 0.00 91 1018.5
20260507043058 68 62 1.0 5.0 0.00 0.00 0.00 92 1018.7
20260507041550 68 0 1.0 4.0 0.00 0.00 0.00 90 1018.7
20260507040101 68 231 0.0 2.0 0.00 0.00 0.00 91 1018.8
20260507034558 68 0 1.0 3.0 0.00 0.00 0.00 91 1018.9
20260507033051 68 0 0.0 3.0 0.00 0.00 0.00 91 1019.0
20260507031553 68 69 0.0 2.0 0.00 0.00 0.00 90 1019.1
20260507030053 68 0 0.0 3.0 0.00 0.00 0.00 89 1019.1
20260507024600 69 0 0.0 3.0 0.00 0.00 0.00 90 1019.3
20260507023054 69 36 1.0 3.0 0.00 0.00 0.00 90 1019.1
20260507021551 69 0 0.0 3.0 0.00 0.00 0.00 91 1019.0
20260507020057 68 0 0.0 2.0 0.00 0.00 0.00 90 1019.1
20260507014552 68 34 0.0 1.0 0.00 0.00 0.00 89 1019.0
20260507013050 69 0 0.0 3.0 0.00 0.00 0.00 89 1018.9
20260507011549 69 327 0.0 2.0 0.00 0.00 0.00 89 1018.9
20260507010110 69 0 0.0 1.0 0.00 0.00 0.00 88 1018.7
20260507004556 69 0 0.0 1.0 0.00 0.00 0.00 88 1018.6
20260507003057 70 0 0.0 1.0 0.00 0.00 0.00 87 1018.3
20260507001557 70 0 0.0 3.0 0.00 0.00 0.00 86 1018.3
20260507000101 70 0 0.0 7.0 0.00 0.00 0.00 86 1018.0
20260506234602 71 200 0.0 2.0 0.00 0.00 0.00 85 1018.0
20260506233100 71 125 0.0 2.0 0.00 0.00 0.00 84 1017.8
20260506231552 72 96 1.0 5.0 0.00 0.00 0.00 83 1017.5
20260506230059 72 158 1.0 4.0 0.00 0.00 0.00 83 1017.5
20260506224554 72 192 2.0 6.0 0.00 0.00 0.00 81 1017.3
20260506223059 73 163 2.0 9.0 0.00 0.00 0.00 79 1017.2
20260506221551 73 265 4.0 12.0 0.00 0.00 0.00 79 1017.0
20260506220054 75 123 5.0 11.0 0.00 0.00 0.00 77 1016.9
20260506214556 75 132 4.0 11.0 0.00 0.00 0.00 77 1016.9
20260506213054 76 118 5.0 11.0 0.00 0.00 0.00 75 1016.8
20260506211554 77 184 3.0 9.0 0.00 0.00 0.00 72 1016.6
20260506210057 77 144 5.0 12.0 0.00 0.00 0.00 72 1016.7
20260506204606 77 106 4.0 10.0 0.00 0.00 0.00 71 1016.7
20260506203053 78 131 2.0 12.0 0.00 0.00 0.00 71 1016.5
20260506201553 78 186 4.0 11.0 0.00 0.00 0.00 71 1016.5
20260506200056 79 225 5.0 10.0 0.00 0.00 0.00 69 1016.6
20260506194552 79 140 3.0 12.0 0.00 0.00 0.00 69 1016.7